Location: �couen
(49.0206°N, 2.3831°E)
Time: 19:46:49
(UTC+00:00)

Cosmos 2227 - Pass Details

Date: 04 June 2022
Orbit: 833 x 863 km, 71.0° (Epoch: 25 June)

Event Time Altitude Azimuth Distance (km) Brightness Sun altitude
Rises 20:40:35 0° 324° (NW) 3,450 9.8 -7.1°
Reaches altitude 10° 20:43:20 10° 313° (NW) 2,510 8.5 -7.4°
Maximum altitude 20:48:11 29° 256° (WSW) 1,541 5.9 -7.9°
Drops below altitude 10° 20:53:01 10° 199° (SSW) 2,495 6.4 -8.5°
Sets 20:55:46 0° 188° (S) 3,425 7.0 -8.7°
